Weather observations for the past three days for
Tulsa, Tulsa International Airport
Imperial (Metric)
Date Time (cdt) Wind (mph) Vis. (mi.) Weather Sky Cond. Temperature (ºF) Relative Humidity Wind Chill (°F) Heat Index (°F) Pressure Precipitation (in)
Air Dwpt 6 hour altimeter (in) sea level (mb) 1 hr 3 hr 6 hr
Max. Min.
14 01:53 E 5 10.00 Overcast BKN110 OVC250 80.1 71.1 74% 84 29.93 1012.4
14 00:53 S 9 10.00 Overcast BKN110 OVC250 82 71.1 91 81 69% 86 29.94 1012.9
13 23:53 SW 5 10.00 Overcast SCT110 OVC250 82.9 71.1 67% 88 29.99 1014.4
13 22:53 S 9 10.00 Overcast OVC250 82.9 71.1 67% 88 29.93 1012.5
13 21:53 S 8 10.00 Overcast OVC250 84.9 71.1 63% 90 29.9 1011.6
13 20:53 S 12 10.00 Mostly Cloudy BKN250 87.1 71.1 59% 93 29.87 1010.4
13 19:53 S 14 10.00 Mostly Cloudy BKN250 88 71.1 57% 94 29.85 1010.0
13 18:53 S 14 10.00 A Few Clouds FEW250 91 71.1 93 89.1 52% 98 29.86 1010.1
13 17:53 S 12 10.00 A Few Clouds FEW250 91.9 72 52% 100 29.88 1010.7
13 16:53 S 15 10.00 Fair CLR 93 71.1 49% 100 29.89 1011.1
13 15:53 S 15 G 25 10.00 Fair CLR 93 72 50% 101 29.9 1011.6
13 14:53 S 16 G 24 10.00 A Few Clouds FEW030 91.9 72 52% 100 29.92 1012.1
13 13:53 S 14 G 22 10.00 A Few Clouds FEW030 91.9 72 52% 100 29.93 1012.6
13 12:53 S 13 G 21 10.00 Partly Cloudy SCT030 89.1 72 90 73.9 57% 96 29.94 1013.1
13 11:53 SW 12 G 20 10.00 A Few Clouds FEW030 87.1 71.1 59% 93 29.95 1013.1
13 10:53 SW 13 G 23 10.00 Fair CLR 84 70 63% 88 29.95 1013.2
13 09:53 S 13 G 18 10.00 Fair CLR 82.9 69.1 63% 87 29.95 1013.4
13 08:53 S 12 G 21 10.00 Fair CLR 79 66.9 67% 81 29.96 1013.5
13 07:53 S 14 G 22 10.00 Fair CLR 77 64.9 66% 79 29.95 1013.2
13 06:53 S 10 10.00 Fair CLR 73.9 64 77 73 71% 29.94 1012.8
13 05:53 S 8 10.00 A Few Clouds FEW200 73 63 71% 29.92 1012.1
13 04:53 S 12 10.00 A Few Clouds FEW200 75 63 66% 77 29.91 1011.7
13 03:53 S 8 10.00 Fair CLR 75 64 69% 77 29.89 1011.3
13 02:53 S 8 10.00 Fair CLR 75 64 69% 77 29.9 1011.7
13 01:53 S 8 10.00 Fair CLR 75.9 64.9 69% 78 29.92 1012.1
13 00:53 S 13 10.00 Fair CLR 77 64.9 87.1 77 66% 79 29.92 1012.3
12 23:53 S 13 10.00 Fair CLR 79 64 60% 81 29.93 1012.7
12 22:53 S 10 10.00 Fair CLR 80.1 64 58% 82 29.93 1012.5
12 21:53 S 9 10.00 Fair CLR 81 64.9 58% 83 29.91 1012.0
12 20:53 S 9 10.00 A Few Clouds FEW010 82.9 64.9 55% 85 29.9 1011.8
12 19:53 S 12 10.00 Fair CLR 84.9 64.9 51% 87 29.91 1011.9
12 18:53 S 13 10.00 Fair CLR 87.1 64 90 84.9 46% 88 29.9 1011.7
12 17:53 S 9 10.00 Fair CLR 88 64.9 46% 90 29.91 1012.0
12 16:53 S 12 G 18 10.00 Fair CLR 89.1 63 42% 90 29.93 1012.5
12 15:53 SW 9 G 21 10.00 Fair CLR 89.1 63 42% 90 29.94 1013.0
12 14:53 SW 10 G 18 10.00 Fair CLR 88 63 43% 89 29.95 1013.4
12 13:53 S 8 10.00 Fair CLR 87.1 63 45% 88 29.98 1014.5
12 12:53 S 8 10.00 A Few Clouds FEW040 86 63 86 66 46% 87 30 1015.0
12 11:53 SW 10 G 17 10.00 A Few Clouds FEW040 84 63 49% 85 30.01 1015.5
12 10:53 S 9 10.00 Fair CLR 82.9 64.9 55% 85 30.02 1015.6
12 09:53 S 8 10.00 Fair CLR 80.1 64.9 60% 82 30.02 1015.9
12 08:53 S 6 10.00 Fair CLR 77 64.9 66% 79 30.03 1016.0
12 06:53 SE 3 10.00 A Few Clouds FEW250 66 62.1 73.9 63 87% 30 1015.3
12 05:53 Calm 10.00 A Few Clouds FEW250 64.9 61 87% 30 1015.1
12 04:53 Calm 10.00 Partly Cloudy SCT250 66 62.1 87% 29.98 1014.5
12 03:53 Calm 10.00 Partly Cloudy SCT250 66 62.1 87% 29.97 1014.3
12 02:53 Calm 10.00 Partly Cloudy SCT250 66 61 84% 29.98 1014.4
12 01:53 Calm 10.00 Partly Cloudy SCT250 73 61 66% 29.98 1014.4
12 00:53 Calm 10.00 Partly Cloudy SCT250 72 60.1 84.9 71.1 66% 29.99 1014.6
11 23:53 Calm 10.00 Partly Cloudy SCT250 73 59 62% 29.98 1014.5
11 22:53 SE 5 10.00 Partly Cloudy SCT250 75 59 58% 77 29.97 1014.1
11 21:53 SE 6 10.00 Mostly Cloudy BKN250 73.9 59 60% 29.95 1013.5
11 20:53 E 6 10.00 Mostly Cloudy FEW060 BKN250 75.9 60.1 58% 78 29.94 1013.3
11 19:53 E 7 10.00 Mostly Cloudy FEW060 BKN250 81 63 54% 82 29.93 1012.9
11 18:53 Calm 10.00 Mostly Cloudy FEW060 BKN250 84.9 61 88 82.9 45% 85 29.93 1012.6
11 17:53 N 3 10.00 Mostly Cloudy FEW065 BKN250 84.9 62.1 46% 85 29.93 1012.7
11 16:53 S 8 10.00 Mostly Cloudy FEW065 BKN250 87.1 61 42% 87 29.94 1012.9
11 15:53 E 5 10.00 Mostly Cloudy FEW065 BKN250 86 59 40% 85 29.95 1013.6
11 14:53 N 6 10.00 Mostly Cloudy SCT065 SCT170 BKN220 86 61 43% 86 29.97 1014.2
11 13:53 Vrbl 5 10.00 Mostly Cloudy SCT060 BKN250 86 59 40% 85 29.98 1014.6
11 12:53 Calm 10.00 Mostly Cloudy SCT040 BKN250 84.9 60.1 84.9 64 43% 85 29.99 1014.7
11 11:53 S 7 10.00 Mostly Cloudy FEW040 FEW120 BKN250 82.9 61 48% 83 29.98 1014.6
11 10:53 SE 7 10.00 Mostly Cloudy FEW120 BKN250 81 62.1 53% 82 30 1015.0
11 09:53 S 7 10.00 Mostly Cloudy BKN250 78.1 61 56% 80 30 1015.1
11 08:53 E 7 10.00 Mostly Cloudy BKN250 70 60.1 71% 29.99 1014.7
11 07:53 Calm 10.00 Partly Cloudy SCT250 69.1 57.9 68% 29.99 1014.7
11 06:53 Calm 10.00 Mostly Cloudy FEW180 BKN250 66 57.9 70 61 75% 29.99 1014.8
11 05:53 Calm 10.00 Mostly Cloudy BKN250 63 60.1 90% 29.98 1014.6
11 04:53 Calm 10.00 Mostly Cloudy BKN250 66.9 57.9 73% 29.98 1014.5
11 03:53 Calm 10.00 Mostly Cloudy BKN250 66 59 78% 29.97 1014.1
Date Time (cdt) Wind (mph) Vis. (mi.) Weather Sky Cond. Air Dwpt Max. Min. Relative Humidity Wind Chill (°F) Heat Index (°F) altimeter (in) sea level (mb) 1 hr 3 hr 6 hr
6 hour
Temperature (ºF) Pressure Precipitation (in)